Year,Month,Day,Hour,Minute,Value (Times are PST for barometer in hPa)
2015,08,29,00,00,1006.39
2015,08,29,00,01,1006.37
2015,08,29,00,02,1006.37
2015,08,29,00,03,1006.37
2015,08,29,00,04,1006.37
2015,08,29,00,05,1006.36
2015,08,29,00,06,1006.29
2015,08,29,00,07,1006.26
2015,08,29,00,08,1006.24
2015,08,29,00,09,1006.26
2015,08,29,00,10,1006.22
2015,08,29,00,11,1006.22
2015,08,29,00,12,1006.29
2015,08,29,00,13,1006.24
2015,08,29,00,14,1006.27
2015,08,29,00,15,1006.27
2015,08,29,00,16,1006.27
2015,08,29,00,17,1006.27
2015,08,29,00,18,1006.26
2015,08,29,00,19,1006.23
2015,08,29,00,20,1006.22
2015,08,29,00,21,1006.16
2015,08,29,00,22,1006.16
2015,08,29,00,23,1006.16
2015,08,29,00,24,1006.16
2015,08,29,00,25,1006.15
2015,08,29,00,26,1006.14
2015,08,29,00,27,1006.16
2015,08,29,00,28,1006.17
2015,08,29,00,29,1006.19
2015,08,29,00,30,1006.16
2015,08,29,00,31,1006.16
2015,08,29,00,32,1006.15
2015,08,29,00,33,1006.10
2015,08,29,00,34,1006.09
2015,08,29,00,35,1006.06
2015,08,29,00,36,1006.06
2015,08,29,00,37,1006.02
2015,08,29,00,38,1005.95
2015,08,29,00,39,1005.89
2015,08,29,00,40,1005.87
2015,08,29,00,41,1005.79
2015,08,29,00,42,1005.78
2015,08,29,00,43,1005.73
2015,08,29,00,44,1005.75
2015,08,29,00,45,1005.68
2015,08,29,00,46,1005.66
2015,08,29,00,47,1005.69
2015,08,29,00,48,1005.68
2015,08,29,00,49,1005.65
2015,08,29,00,50,1005.62
2015,08,29,00,51,1005.63
2015,08,29,00,52,1005.65
2015,08,29,00,53,1005.62
2015,08,29,00,54,1005.62
2015,08,29,00,55,1005.61
2015,08,29,00,56,1005.55
2015,08,29,00,57,1005.51
2015,08,29,00,58,1005.44
2015,08,29,00,59,1005.38
2015,08,29,01,00,1005.34
2015,08,29,01,01,1005.26
2015,08,29,01,02,1005.18
2015,08,29,01,03,1005.18
2015,08,29,01,04,1005.17
2015,08,29,01,05,1005.14
2015,08,29,01,06,1005.12
2015,08,29,01,07,1005.14
2015,08,29,01,08,1005.07
2015,08,29,01,09,1005.01
2015,08,29,01,10,1005.01
2015,08,29,01,11,1005.00
2015,08,29,01,12,1004.95
2015,08,29,01,13,1004.94
2015,08,29,01,14,1004.90
2015,08,29,01,15,1004.83
2015,08,29,01,16,1004.80
2015,08,29,01,17,1004.78
2015,08,29,01,18,1004.78
2015,08,29,01,19,1004.77
2015,08,29,01,20,1004.70
2015,08,29,01,21,1004.68
2015,08,29,01,22,1004.70
2015,08,29,01,23,1004.61
2015,08,29,01,24,1004.60
2015,08,29,01,25,1004.54
2015,08,29,01,26,1004.54
2015,08,29,01,27,1004.54
2015,08,29,01,28,1004.53
2015,08,29,01,29,1004.50
2015,08,29,01,30,1004.50
2015,08,29,01,31,1004.49
2015,08,29,01,32,1004.43
2015,08,29,01,33,1004.40
2015,08,29,01,34,1004.41
2015,08,29,01,35,1004.43
2015,08,29,01,36,1004.40
2015,08,29,01,37,1004.40
2015,08,29,01,38,1004.40
2015,08,29,01,39,1004.40
2015,08,29,01,40,1004.40
2015,08,29,01,41,1004.39
2015,08,29,01,42,1004.36
2015,08,29,01,43,1004.28
2015,08,29,01,44,1004.19
2015,08,29,01,45,1004.16
2015,08,29,01,46,1004.12
2015,08,29,01,47,1004.06
2015,08,29,01,48,1004.02
2015,08,29,01,49,1003.99
2015,08,29,01,50,1003.93
2015,08,29,01,51,1003.94
2015,08,29,01,52,1003.96
2015,08,29,01,53,1003.97
2015,08,29,01,54,1004.00
2015,08,29,01,55,1004.01
2015,08,29,01,56,1004.04
2015,08,29,01,57,1004.05
2015,08,29,01,58,1003.99
2015,08,29,01,59,1003.95
2015,08,29,02,00,1003.88
2015,08,29,02,01,1003.78
2015,08,29,02,02,1003.75
2015,08,29,02,03,1003.67
2015,08,29,02,04,1003.59
2015,08,29,02,05,1003.57
2015,08,29,02,06,1003.50
2015,08,29,02,07,1003.51
2015,08,29,02,08,1003.50
2015,08,29,02,09,1003.52
2015,08,29,02,10,1003.52
2015,08,29,02,11,1003.51
2015,08,29,02,12,1003.50
2015,08,29,02,13,1003.55
2015,08,29,02,14,1003.53
2015,08,29,02,15,1003.62
2015,08,29,02,16,1003.63
2015,08,29,02,17,1003.65
2015,08,29,02,18,1003.62
2015,08,29,02,19,1003.63
2015,08,29,02,20,1003.65
2015,08,29,02,21,1003.62
2015,08,29,02,22,1003.61
2015,08,29,02,23,1003.60
2015,08,29,02,24,1003.62
2015,08,29,02,25,1003.62
2015,08,29,02,26,1003.59
2015,08,29,02,27,1003.62
2015,08,29,02,28,1003.62
2015,08,29,02,29,1003.59
2015,08,29,02,30,1003.56
2015,08,29,02,31,1003.56
2015,08,29,02,32,1003.55
2015,08,29,02,33,1003.51
2015,08,29,02,34,1003.49
2015,08,29,02,35,1003.50
2015,08,29,02,36,1003.51
2015,08,29,02,37,1003.47
2015,08,29,02,38,1003.49
2015,08,29,02,39,1003.52
2015,08,29,02,40,1003.52
2015,08,29,02,41,1003.49
2015,08,29,02,42,1003.51
2015,08,29,02,43,1003.45
2015,08,29,02,44,1003.42
2015,08,29,02,45,1003.41
2015,08,29,02,46,1003.38
2015,08,29,02,47,1003.31
2015,08,29,02,48,1003.24
2015,08,29,02,49,1003.18
2015,08,29,02,50,1003.15
2015,08,29,02,51,1003.11
2015,08,29,02,52,1003.06
2015,08,29,02,53,1002.92
2015,08,29,02,54,1002.79
2015,08,29,02,55,1002.71
2015,08,29,02,56,1002.67
2015,08,29,02,57,1002.64
2015,08,29,02,58,1002.60
2015,08,29,02,59,1002.53
2015,08,29,03,00,1002.50
2015,08,29,03,01,1002.46
2015,08,29,03,02,1002.40
2015,08,29,03,03,1002.37
2015,08,29,03,06,1002.36
2015,08,29,03,07,1002.34
2015,08,29,03,08,1002.34
2015,08,29,03,09,1002.32
2015,08,29,03,10,1002.25
2015,08,29,03,11,1002.19
2015,08,29,03,12,1002.16
2015,08,29,03,13,1002.11
2015,08,29,03,14,1002.05
2015,08,29,03,15,1001.96
2015,08,29,03,16,1001.86
2015,08,29,03,17,1001.86
2015,08,29,03,18,1001.84
2015,08,29,03,19,1001.78
2015,08,29,03,20,1001.73
2015,08,29,03,21,1001.72
2015,08,29,03,22,1001.71
2015,08,29,03,23,1001.77
2015,08,29,03,24,1001.78
2015,08,29,03,25,1001.71
2015,08,29,03,26,1001.65
2015,08,29,03,27,1001.64
2015,08,29,03,28,1001.67
2015,08,29,03,29,1001.70
2015,08,29,03,30,1001.76
2015,08,29,03,31,1001.85
2015,08,29,03,32,1001.94
2015,08,29,03,33,1002.00
2015,08,29,03,34,1002.08
2015,08,29,03,35,1002.12
2015,08,29,03,36,1002.16
2015,08,29,03,37,1002.11
2015,08,29,03,38,1002.06
2015,08,29,03,39,1002.03
2015,08,29,03,40,1002.03
2015,08,29,03,41,1002.02
2015,08,29,03,42,1001.98
2015,08,29,03,43,1001.89
2015,08,29,03,44,1001.79
2015,08,29,03,45,1001.74
2015,08,29,03,46,1001.69
2015,08,29,03,47,1001.69
2015,08,29,03,48,1001.70
2015,08,29,03,49,1001.73
2015,08,29,03,50,1001.72
2015,08,29,03,51,1001.67
2015,08,29,03,52,1001.61
2015,08,29,03,53,1001.55
2015,08,29,03,54,1001.51
2015,08,29,03,55,1001.48
2015,08,29,03,56,1001.43
2015,08,29,03,57,1001.37
2015,08,29,03,58,1001.40
2015,08,29,03,59,1001.41
2015,08,29,04,00,1001.38
2015,08,29,04,01,1001.33
2015,08,29,04,02,1001.24
2015,08,29,04,03,1001.21
2015,08,29,04,04,1001.17
2015,08,29,04,05,1001.12
2015,08,29,04,06,1001.11
2015,08,29,04,07,1001.07
2015,08,29,04,08,1001.06
2015,08,29,04,09,1001.08
2015,08,29,04,10,1001.08
2015,08,29,04,11,1001.07
2015,08,29,04,12,1001.06
2015,08,29,04,13,1001.09
2015,08,29,04,14,1001.13
2015,08,29,04,15,1001.15
2015,08,29,04,16,1001.15
2015,08,29,04,17,1001.13
2015,08,29,04,18,1001.05
2015,08,29,04,19,1000.97
2015,08,29,04,20,1000.91
2015,08,29,04,21,1000.79
2015,08,29,04,22,1000.73
2015,08,29,04,23,1000.65
2015,08,29,04,24,1000.57
2015,08,29,04,25,1000.51
2015,08,29,04,26,1000.44
2015,08,29,04,27,1000.42
2015,08,29,04,28,1000.35
2015,08,29,04,29,1000.32
2015,08,29,04,30,1000.33
2015,08,29,04,31,1000.30
2015,08,29,04,32,1000.27
2015,08,29,04,33,1000.27
2015,08,29,04,34,1000.24
2015,08,29,04,35,1000.20
2015,08,29,04,36,1000.25
2015,08,29,04,37,1000.22
2015,08,29,04,38,1000.23
2015,08,29,04,39,1000.14
2015,08,29,04,40,1000.14
2015,08,29,04,41,1000.11
2015,08,29,04,42,1000.03
2015,08,29,04,43,1000.01
2015,08,29,04,44,999.95
2015,08,29,04,45,999.89
2015,08,29,04,46,999.86
2015,08,29,04,47,999.83
2015,08,29,04,48,999.85
2015,08,29,04,49,999.89
2015,08,29,04,50,999.86
2015,08,29,04,51,999.80
2015,08,29,04,52,999.70
2015,08,29,04,53,999.62
2015,08,29,04,54,999.57
2015,08,29,04,55,999.54
2015,08,29,04,56,999.54
2015,08,29,04,57,999.48
2015,08,29,04,58,999.46
2015,08,29,04,59,999.44
2015,08,29,05,00,999.37
2015,08,29,05,01,999.31
2015,08,29,05,02,999.29
2015,08,29,05,03,999.26
2015,08,29,05,04,999.20
2015,08,29,05,05,999.21
2015,08,29,05,06,999.19
2015,08,29,05,07,999.20
2015,08,29,05,08,999.23
2015,08,29,05,09,999.26
2015,08,29,05,10,999.27
2015,08,29,05,11,999.28
2015,08,29,05,12,999.25
2015,08,29,05,13,999.22
2015,08,29,05,14,999.22
2015,08,29,05,15,999.22
2015,08,29,05,16,999.23
2015,08,29,05,17,999.27
2015,08,29,05,18,999.28
2015,08,29,05,19,999.25
2015,08,29,05,20,999.19
2015,08,29,05,21,999.11
2015,08,29,05,22,999.05
2015,08,29,05,23,998.94
2015,08,29,05,24,998.92
2015,08,29,05,25,998.91
2015,08,29,05,26,998.88
2015,08,29,05,27,998.87
2015,08,29,05,28,998.85
2015,08,29,05,29,998.84
2015,08,29,05,30,998.82
2015,08,29,05,31,998.80
2015,08,29,05,32,998.74
2015,08,29,05,33,998.70
2015,08,29,05,34,998.63
2015,08,29,05,35,998.57
2015,08,29,05,36,998.54
2015,08,29,05,37,998.54
2015,08,29,05,38,998.55
2015,08,29,05,39,998.56
2015,08,29,05,40,998.53
2015,08,29,05,41,998.58
2015,08,29,05,42,998.60
2015,08,29,05,43,998.68
2015,08,29,05,44,998.76
2015,08,29,05,45,998.77
2015,08,29,05,46,998.78
2015,08,29,05,47,998.86
2015,08,29,05,48,998.88
2015,08,29,05,49,998.87
2015,08,29,05,50,998.85
2015,08,29,05,51,998.89
2015,08,29,05,52,998.99
2015,08,29,05,53,999.00
2015,08,29,05,54,999.04
2015,08,29,05,55,999.09
2015,08,29,05,56,999.09
2015,08,29,05,57,999.10
2015,08,29,05,58,999.15
2015,08,29,05,59,999.24
2015,08,29,06,00,999.34
2015,08,29,06,01,999.41
2015,08,29,06,02,999.51
2015,08,29,06,03,999.57
2015,08,29,06,04,999.61
2015,08,29,06,05,999.67
2015,08,29,06,06,999.71
2015,08,29,06,07,999.74
2015,08,29,06,08,999.77
2015,08,29,06,09,999.81
2015,08,29,06,10,999.85
2015,08,29,06,11,999.92
2015,08,29,06,12,1000.00
2015,08,29,06,13,1000.12
2015,08,29,06,14,1000.22
2015,08,29,06,15,1000.41
2015,08,29,06,16,1000.54
2015,08,29,06,17,1000.67
2015,08,29,06,18,1000.79
2015,08,29,06,19,1000.79
2015,08,29,06,20,1000.69
2015,08,29,06,21,1000.57
2015,08,29,06,22,1000.39
2015,08,29,06,23,1000.23
2015,08,29,06,24,1000.09
2015,08,29,06,25,999.99
2015,08,29,06,26,999.68
2015,08,29,06,27,999.46
2015,08,29,06,28,999.34
2015,08,29,06,29,999.23
2015,08,29,06,30,999.14
2015,08,29,06,31,999.12
2015,08,29,06,32,999.12
2015,08,29,06,33,999.11
2015,08,29,06,34,999.08
2015,08,29,06,35,999.03
2015,08,29,06,36,999.00
2015,08,29,06,37,999.04
2015,08,29,06,38,999.09
2015,08,29,06,39,999.08
2015,08,29,06,40,999.04
2015,08,29,06,41,999.04
2015,08,29,06,42,999.11
2015,08,29,06,43,999.17
2015,08,29,06,44,999.24
2015,08,29,06,45,999.30
2015,08,29,06,46,999.33
2015,08,29,06,47,999.35
2015,08,29,06,48,999.30
2015,08,29,06,49,999.21
2015,08,29,06,50,999.03
2015,08,29,06,51,998.84
2015,08,29,06,52,998.67
2015,08,29,06,53,998.47
2015,08,29,06,54,998.31
2015,08,29,06,55,998.19
2015,08,29,06,56,998.10
2015,08,29,06,57,997.93
2015,08,29,06,58,997.76
2015,08,29,06,59,997.61
2015,08,29,07,00,997.54
2015,08,29,07,01,997.50
2015,08,29,07,02,997.51
2015,08,29,07,03,997.55
2015,08,29,07,04,997.62
2015,08,29,07,05,997.59
2015,08,29,07,06,997.57
2015,08,29,07,07,997.67
2015,08,29,07,08,997.71
2015,08,29,07,09,997.76
2015,08,29,07,10,997.82
2015,08,29,07,11,997.82
2015,08,29,07,12,997.85
2015,08,29,07,13,997.84
2015,08,29,07,14,997.96
2015,08,29,07,15,998.00
2015,08,29,07,16,998.01
2015,08,29,07,17,998.04
2015,08,29,07,18,998.02
2015,08,29,07,19,997.95
2015,08,29,07,20,997.91
2015,08,29,07,21,997.91
2015,08,29,07,22,997.80
2015,08,29,07,23,997.65
2015,08,29,07,24,997.47
2015,08,29,07,25,997.37
2015,08,29,07,26,997.34
2015,08,29,07,27,997.42
2015,08,29,07,28,997.52
2015,08,29,07,29,997.53
2015,08,29,07,30,997.62
2015,08,29,07,31,997.69
2015,08,29,07,32,997.79
2015,08,29,07,33,997.89
2015,08,29,07,34,997.95
2015,08,29,07,35,997.97
2015,08,29,07,36,997.92
2015,08,29,07,37,997.73
2015,08,29,07,38,997.58
2015,08,29,07,39,997.45
2015,08,29,07,40,997.27
2015,08,29,07,41,997.56
2015,08,29,07,42,997.90
2015,08,29,07,43,997.96
2015,08,29,07,44,997.94
2015,08,29,07,45,997.90
2015,08,29,07,46,997.76
2015,08,29,07,47,997.70
2015,08,29,07,48,997.62
2015,08,29,07,49,997.60
2015,08,29,07,50,997.57
2015,08,29,07,51,997.44
2015,08,29,07,52,997.36
2015,08,29,07,53,997.22
2015,08,29,07,54,997.11
2015,08,29,07,55,997.16
2015,08,29,07,56,997.18
2015,08,29,07,57,997.30
2015,08,29,07,58,997.45
2015,08,29,07,59,997.46
2015,08,29,08,00,997.28
2015,08,29,08,01,997.19
2015,08,29,08,02,997.31
2015,08,29,08,03,997.38
2015,08,29,08,04,997.38
2015,08,29,08,05,997.44
2015,08,29,08,06,997.47
2015,08,29,08,07,997.51
2015,08,29,08,08,997.55
2015,08,29,08,09,997.61
2015,08,29,08,10,997.57
2015,08,29,08,11,997.62
2015,08,29,08,12,997.68
2015,08,29,08,13,997.72
2015,08,29,08,14,997.68
2015,08,29,08,15,997.65
2015,08,29,08,16,997.71
2015,08,29,08,17,997.72
2015,08,29,08,18,997.69
2015,08,29,08,19,997.63
2015,08,29,08,20,997.65
2015,08,29,08,21,997.68
2015,08,29,08,22,997.61
2015,08,29,08,23,997.56
2015,08,29,08,24,997.56
2015,08,29,08,25,997.56
2015,08,29,08,26,997.54
2015,08,29,08,27,997.51
2015,08,29,08,28,997.53
2015,08,29,08,29,997.52
2015,08,29,08,30,997.52
2015,08,29,08,31,997.59
2015,08,29,08,32,997.70
2015,08,29,08,33,997.83
2015,08,29,08,34,997.83
2015,08,29,08,35,997.83
2015,08,29,08,36,997.82
2015,08,29,08,37,997.77
2015,08,29,08,38,997.79
2015,08,29,08,39,997.88
2015,08,29,08,40,997.92
2015,08,29,08,41,998.01
2015,08,29,08,42,998.02
2015,08,29,08,43,997.93
2015,08,29,08,44,997.85
2015,08,29,08,45,997.91
2015,08,29,08,46,997.97
2015,08,29,08,47,997.97
2015,08,29,08,48,997.98
2015,08,29,08,49,998.00
2015,08,29,08,50,997.97
2015,08,29,08,51,997.89
2015,08,29,08,52,997.88
2015,08,29,08,53,997.93
2015,08,29,08,54,998.05
2015,08,29,08,55,998.13
2015,08,29,08,56,998.24
2015,08,29,08,57,998.34
2015,08,29,08,58,998.33
2015,08,29,08,59,998.29
2015,08,29,09,00,998.26
2015,08,29,09,01,998.32
2015,08,29,09,02,998.33
2015,08,29,09,03,998.28
2015,08,29,09,04,998.30
2015,08,29,09,05,998.24
2015,08,29,09,06,998.16
2015,08,29,09,07,998.12
2015,08,29,09,08,998.07
2015,08,29,09,09,998.05
2015,08,29,09,10,998.00
2015,08,29,09,11,997.99
2015,08,29,09,12,997.96
2015,08,29,09,13,997.95
2015,08,29,09,14,997.96
2015,08,29,09,15,997.94
2015,08,29,09,16,997.93
2015,08,29,09,17,997.90
2015,08,29,09,18,997.88
2015,08,29,09,19,997.80
2015,08,29,09,20,997.78
2015,08,29,09,21,997.72
2015,08,29,09,22,997.70
2015,08,29,09,23,997.71
2015,08,29,09,24,997.71
2015,08,29,09,25,997.65
2015,08,29,09,26,997.62
2015,08,29,09,27,997.59
2015,08,29,09,28,997.55
2015,08,29,09,29,997.52
2015,08,29,09,30,997.50
2015,08,29,09,31,997.49
2015,08,29,09,32,997.47
2015,08,29,09,33,997.50
2015,08,29,09,34,997.51
2015,08,29,09,35,997.53
2015,08,29,09,36,997.53
2015,08,29,09,37,997.55
2015,08,29,09,38,997.59
2015,08,29,09,39,997.58
2015,08,29,09,40,997.64
2015,08,29,09,41,997.65
2015,08,29,09,42,997.61
2015,08,29,09,43,997.57
2015,08,29,09,44,997.60
2015,08,29,09,45,997.61
2015,08,29,09,46,997.64
2015,08,29,09,47,997.66
2015,08,29,09,48,997.68
2015,08,29,09,49,997.74
2015,08,29,09,50,997.76
2015,08,29,09,51,997.70
2015,08,29,09,52,997.69
2015,08,29,09,53,997.66
2015,08,29,09,54,997.66
2015,08,29,09,55,997.65
2015,08,29,09,56,997.64
2015,08,29,09,57,997.64
2015,08,29,09,58,997.55
2015,08,29,09,59,997.51
2015,08,29,10,00,997.45
2015,08,29,10,01,997.41
2015,08,29,10,02,997.38
2015,08,29,10,03,997.42
2015,08,29,10,04,997.35
2015,08,29,10,05,997.31
2015,08,29,10,06,997.22
2015,08,29,10,07,997.11
2015,08,29,10,08,997.09
2015,08,29,10,09,997.08
2015,08,29,10,10,997.03
2015,08,29,10,11,996.98
2015,08,29,10,12,996.95
2015,08,29,10,13,996.92
2015,08,29,10,14,996.83
2015,08,29,10,15,996.83
2015,08,29,10,16,996.78
2015,08,29,10,17,996.77
2015,08,29,10,18,996.77
2015,08,29,10,19,996.85
2015,08,29,10,20,996.94
2015,08,29,10,21,996.93
2015,08,29,10,22,996.92
2015,08,29,10,23,996.84
2015,08,29,10,24,996.81
2015,08,29,10,25,996.77
2015,08,29,10,26,996.73
2015,08,29,10,27,996.79
2015,08,29,10,28,996.83
2015,08,29,10,29,996.85
2015,08,29,10,30,996.85
2015,08,29,10,31,996.87
2015,08,29,10,32,996.91
2015,08,29,10,33,996.87
2015,08,29,10,34,996.82
2015,08,29,10,35,996.82
2015,08,29,10,36,996.81
2015,08,29,10,37,996.79
2015,08,29,10,38,996.83
2015,08,29,10,39,996.84
2015,08,29,10,40,996.82
2015,08,29,10,41,996.83
2015,08,29,10,42,996.85
2015,08,29,10,43,996.86
2015,08,29,10,44,996.90
2015,08,29,10,45,996.92
2015,08,29,10,46,996.86
2015,08,29,10,47,996.63
2015,08,29,10,48,996.44
2015,08,29,10,49,996.28
2015,08,29,10,50,996.31
2015,08,29,10,51,996.48
2015,08,29,10,52,996.57
2015,08,29,10,53,996.51
2015,08,29,10,54,996.33
2015,08,29,10,55,996.18
2015,08,29,10,56,996.23
2015,08,29,10,57,996.32
2015,08,29,10,58,996.35
2015,08,29,10,59,996.37
2015,08,29,11,00,996.30
2015,08,29,11,01,996.15
2015,08,29,11,02,996.04
2015,08,29,11,03,995.94
2015,08,29,11,04,995.95
2015,08,29,11,05,995.97
2015,08,29,11,06,995.96
2015,08,29,11,07,995.90
2015,08,29,11,08,995.89
2015,08,29,11,09,995.84
2015,08,29,11,10,995.75
2015,08,29,11,11,995.66
2015,08,29,11,12,995.48
2015,08,29,11,13,995.31
2015,08,29,11,14,995.28
2015,08,29,11,15,995.34
2015,08,29,11,16,995.37
2015,08,29,11,17,995.38
2015,08,29,11,18,995.29
2015,08,29,11,19,995.15
2015,08,29,11,20,995.15
2015,08,29,11,21,995.20
2015,08,29,11,22,995.10
2015,08,29,11,23,995.15
2015,08,29,11,24,995.26
2015,08,29,11,25,995.34
2015,08,29,11,26,995.37
2015,08,29,11,27,995.43
2015,08,29,11,28,995.40
2015,08,29,11,29,995.31
2015,08,29,11,30,995.43
2015,08,29,11,31,995.67
2015,08,29,11,32,995.84
2015,08,29,11,33,995.82
2015,08,29,11,34,995.78
2015,08,29,11,35,995.81
2015,08,29,11,36,995.86
2015,08,29,11,37,995.91
2015,08,29,11,38,995.81
2015,08,29,11,39,995.83
2015,08,29,11,40,995.84
2015,08,29,11,41,996.02
2015,08,29,11,42,996.16
2015,08,29,11,43,996.16
2015,08,29,11,44,996.40
2015,08,29,11,45,996.59
2015,08,29,11,46,996.61
2015,08,29,11,47,996.65
2015,08,29,11,48,996.72
2015,08,29,11,49,996.61
2015,08,29,11,50,996.53
2015,08,29,11,51,996.77
2015,08,29,11,52,996.95
2015,08,29,11,53,996.74
2015,08,29,11,54,996.73
2015,08,29,11,55,996.76
2015,08,29,11,56,996.75
2015,08,29,11,57,996.95
2015,08,29,11,58,996.97
2015,08,29,11,59,997.02
2015,08,29,12,00,997.02
2015,08,29,12,01,997.02
2015,08,29,12,02,997.04
2015,08,29,12,03,997.11
2015,08,29,12,04,997.07
2015,08,29,12,05,997.02
2015,08,29,12,06,997.05
2015,08,29,12,07,997.23
2015,08,29,12,08,997.38
2015,08,29,12,09,997.46
2015,08,29,12,10,997.57
2015,08,29,12,11,997.47
2015,08,29,12,12,997.47
2015,08,29,12,13,997.34
2015,08,29,12,14,997.37
2015,08,29,12,15,997.43
2015,08,29,12,16,997.43
2015,08,29,12,17,997.46
2015,08,29,12,18,997.53
2015,08,29,12,19,997.42
2015,08,29,12,20,997.37
2015,08,29,12,21,997.45
2015,08,29,12,22,997.55
2015,08,29,12,23,997.61
2015,08,29,12,24,997.65
2015,08,29,12,25,997.68
2015,08,29,12,26,997.63
2015,08,29,12,27,997.61
2015,08,29,12,28,997.56
2015,08,29,12,29,997.67
2015,08,29,12,30,997.69
2015,08,29,12,31,997.69
2015,08,29,12,32,997.75
2015,08,29,12,33,997.64
2015,08,29,12,34,997.59
2015,08,29,12,35,997.72
2015,08,29,12,36,997.79
2015,08,29,12,37,997.79
2015,08,29,12,38,997.86
2015,08,29,12,39,997.84
2015,08,29,12,40,997.87
2015,08,29,12,41,997.88
2015,08,29,12,42,997.90
2015,08,29,12,43,997.88
2015,08,29,12,44,997.80
2015,08,29,12,45,997.71
2015,08,29,12,46,997.74
2015,08,29,12,47,997.78
2015,08,29,12,48,997.87
2015,08,29,12,49,997.99
2015,08,29,12,50,998.04
2015,08,29,12,51,998.26
2015,08,29,12,52,998.30
2015,08,29,12,53,998.28
2015,08,29,12,54,998.31
2015,08,29,12,55,998.32
2015,08,29,12,56,998.34
2015,08,29,12,57,998.37
2015,08,29,12,58,998.48
2015,08,29,12,59,998.49
2015,08,29,13,00,998.55
2015,08,29,13,01,998.57
2015,08,29,13,02,998.53
2015,08,29,13,03,998.49
2015,08,29,13,04,998.51
2015,08,29,13,05,998.49
2015,08,29,13,06,998.42
2015,08,29,13,07,998.42
2015,08,29,13,08,998.57
2015,08,29,13,09,998.63
2015,08,29,13,10,998.57
2015,08,29,13,11,998.66
2015,08,29,13,12,998.69
2015,08,29,13,13,998.69
2015,08,29,13,14,998.61
2015,08,29,13,15,998.65
2015,08,29,13,16,998.79
2015,08,29,13,17,998.83
2015,08,29,13,18,998.86
2015,08,29,13,19,998.95
2015,08,29,13,20,999.02
2015,08,29,13,21,998.95
2015,08,29,13,22,999.08
2015,08,29,13,23,999.19
2015,08,29,13,24,999.19
2015,08,29,13,25,999.20
2015,08,29,13,26,999.26
2015,08,29,13,27,999.36
2015,08,29,13,28,999.35
2015,08,29,13,29,999.34
2015,08,29,13,30,999.40
2015,08,29,13,31,999.40
2015,08,29,13,32,999.35
2015,08,29,13,33,999.53
2015,08,29,13,34,999.64
2015,08,29,13,35,999.66
2015,08,29,13,36,999.64
2015,08,29,13,37,999.54
2015,08,29,13,38,999.52
2015,08,29,13,39,999.63
2015,08,29,13,40,999.65
2015,08,29,13,41,999.70
2015,08,29,13,42,999.71
2015,08,29,13,43,999.77
2015,08,29,13,44,999.82
2015,08,29,13,45,999.89
2015,08,29,13,46,999.88
2015,08,29,13,47,999.97
2015,08,29,13,48,1000.18
2015,08,29,13,49,1000.30
2015,08,29,13,50,1000.22
2015,08,29,13,51,1000.16
2015,08,29,13,52,1000.25
2015,08,29,13,53,1000.30
2015,08,29,13,54,1000.25
2015,08,29,13,55,1000.21
2015,08,29,13,56,1000.23
2015,08,29,13,57,1000.18
2015,08,29,13,58,1000.11
2015,08,29,13,59,1000.20
2015,08,29,14,00,1000.32
2015,08,29,14,01,1000.33
2015,08,29,14,02,1000.30
2015,08,29,14,03,1000.25
2015,08,29,14,04,1000.33
2015,08,29,14,05,1000.62
2015,08,29,14,06,1000.70
2015,08,29,14,07,1000.77
2015,08,29,14,08,1000.85
2015,08,29,14,09,1000.86
2015,08,29,14,10,1000.90
2015,08,29,14,11,1000.95
2015,08,29,14,12,1000.84
2015,08,29,14,13,1000.79
2015,08,29,14,14,1000.86
2015,08,29,14,15,1000.94
2015,08,29,14,16,1000.98
2015,08,29,14,17,1000.86
2015,08,29,14,18,1000.89
2015,08,29,14,19,1000.96
2015,08,29,14,20,1000.96
2015,08,29,14,21,1000.86
2015,08,29,14,22,1000.78
2015,08,29,14,23,1000.81
2015,08,29,14,24,1000.97
2015,08,29,14,25,1001.09
2015,08,29,14,26,1001.23
2015,08,29,14,27,1001.12
2015,08,29,14,28,1000.95
2015,08,29,14,29,1000.97
2015,08,29,14,30,1001.01
2015,08,29,14,31,1000.98
2015,08,29,14,32,1001.08
2015,08,29,14,33,1001.12
2015,08,29,14,34,1001.23
2015,08,29,14,35,1001.12
2015,08,29,14,36,1001.00
2015,08,29,14,37,1001.07
2015,08,29,14,38,1001.06
2015,08,29,14,39,1001.15
2015,08,29,14,40,1001.26
2015,08,29,14,41,1001.18
2015,08,29,14,42,1001.26
2015,08,29,14,43,1001.17
2015,08,29,14,44,1001.28
2015,08,29,14,45,1001.26
2015,08,29,14,46,1001.30
2015,08,29,14,47,1001.39
2015,08,29,14,48,1001.57
2015,08,29,14,49,1001.63
2015,08,29,14,50,1001.72
2015,08,29,14,51,1001.59
2015,08,29,14,52,1001.75
2015,08,29,14,53,1001.71
2015,08,29,14,54,1001.84
2015,08,29,14,55,1001.99
2015,08,29,14,56,1002.00
2015,08,29,14,57,1002.09
2015,08,29,14,58,1002.01
2015,08,29,14,59,1002.06
2015,08,29,15,00,1002.23
2015,08,29,15,01,1002.33
2015,08,29,15,02,1002.13
2015,08,29,15,03,1002.26
2015,08,29,15,04,1002.31
2015,08,29,15,05,1002.59
2015,08,29,15,06,1002.54
2015,08,29,15,07,1002.66
2015,08,29,15,08,1002.54
2015,08,29,15,09,1002.39
2015,08,29,15,10,1002.31
2015,08,29,15,11,1002.34
2015,08,29,15,12,1002.37
2015,08,29,15,13,1002.50
2015,08,29,15,14,1002.60
2015,08,29,15,15,1002.56
2015,08,29,15,16,1002.51
2015,08,29,15,17,1002.51
2015,08,29,15,18,1002.52
2015,08,29,15,19,1002.58
2015,08,29,15,20,1002.64
2015,08,29,15,21,1002.76
2015,08,29,15,22,1002.84
2015,08,29,15,23,1002.82
2015,08,29,15,24,1002.86
2015,08,29,15,25,1002.96
2015,08,29,15,26,1003.02
2015,08,29,15,27,1003.09
2015,08,29,15,28,1003.17
2015,08,29,15,29,1003.29
2015,08,29,15,30,1003.30
2015,08,29,15,31,1003.36
2015,08,29,15,32,1003.38
2015,08,29,15,33,1003.36
2015,08,29,15,34,1003.40
2015,08,29,15,35,1003.33
2015,08,29,15,36,1003.39
2015,08,29,15,37,1003.38
2015,08,29,15,38,1003.34
2015,08,29,15,39,1003.44
2015,08,29,15,40,1003.48
2015,08,29,15,41,1003.43
2015,08,29,15,42,1003.46
2015,08,29,15,43,1003.48
2015,08,29,15,44,1003.58
2015,08,29,15,45,1003.62
2015,08,29,15,46,1003.59
2015,08,29,15,47,1003.57
2015,08,29,15,48,1003.62
2015,08,29,15,49,1003.65
2015,08,29,15,50,1003.74
2015,08,29,15,51,1003.79
2015,08,29,15,52,1003.79
2015,08,29,15,53,1003.77
2015,08,29,15,54,1003.83
2015,08,29,15,55,1003.82
2015,08,29,15,56,1003.76
2015,08,29,15,57,1003.77
2015,08,29,15,58,1003.78
2015,08,29,15,59,1003.73
2015,08,29,16,00,1003.75
2015,08,29,16,01,1003.84
2015,08,29,16,02,1003.86
2015,08,29,16,03,1003.83
2015,08,29,16,04,1003.84
2015,08,29,16,05,1003.85
2015,08,29,16,06,1003.81
2015,08,29,16,07,1003.89
2015,08,29,16,08,1003.85
2015,08,29,16,09,1003.76
2015,08,29,16,10,1003.75
2015,08,29,16,11,1003.74
2015,08,29,16,12,1003.76
2015,08,29,16,13,1003.76
2015,08,29,16,14,1003.76
2015,08,29,16,15,1003.75
2015,08,29,16,16,1003.74
2015,08,29,16,17,1003.76
2015,08,29,16,18,1003.77
2015,08,29,16,19,1003.86